Time,TemperatureF,DewpointF,PressureIn,WindDirection,WindDirectionDegrees,WindSpeedMPH,WindSpeedGustMPH,Humidity,HourlyPrecipIn,Conditions,Clouds,dailyrainin,SolarRadiationWatts/m^2,SoftwareType,DateUTC
2013-03-18 00:08:00,19.1,-2.0,30.25,NW,311,9.0,13.0,39,0.00,,,0.00,0,weatherlink.com 1.10,2013-03-18 04:08:00,
2013-03-18 00:38:00,18.1,-2.0,30.26,NW,319,5.0,9.0,41,0.00,,,0.00,0,weatherlink.com 1.10,2013-03-18 04:38:00,
2013-03-18 00:53:00,17.8,-1.0,30.27,NW,319,2.0,7.0,43,0.00,,,0.00,0,weatherlink.com 1.10,2013-03-18 04:53:00,
2013-03-18 01:08:00,17.2,-2.0,30.28,NW,321,5.0,8.0,43,0.00,,,0.00,0,weatherlink.com 1.10,2013-03-18 05:08:00,
2013-03-18 01:23:00,17.0,-2.0,30.29,WNW,301,4.0,9.0,43,0.00,,,0.00,0,weatherlink.com 1.10,2013-03-18 05:23:00,
2013-03-18 01:39:00,16.7,-2.0,30.29,NNW,327,6.0,10.0,44,0.00,,,0.00,0,weatherlink.com 1.10,2013-03-18 05:39:00,
2013-03-18 01:54:00,16.5,-2.0,30.29,NW,309,0.0,9.0,44,0.00,,,0.00,0,weatherlink.com 1.10,2013-03-18 05:54:00,
2013-03-18 02:09:00,16.1,-2.0,30.30,North,355,5.0,9.0,45,0.00,,,0.00,0,weatherlink.com 1.10,2013-03-18 06:09:00,
2013-03-18 02:24:00,15.9,-2.0,30.30,NW,325,0.0,8.0,45,0.00,,,0.00,0,weatherlink.com 1.10,2013-03-18 06:24:00,
2013-03-18 02:39:00,15.4,-1.0,30.30,NW,325,0.0,4.0,48,0.00,,,0.00,0,weatherlink.com 1.10,2013-03-18 06:39:00,
2013-03-18 02:54:00,14.8,-2.0,30.31,NW,319,2.0,8.0,48,0.00,,,0.00,0,weatherlink.com 1.10,2013-03-18 06:54:00,
2013-03-18 03:09:00,14.3,-2.0,30.32,NW,318,5.0,6.0,48,0.00,,,0.00,0,weatherlink.com 1.10,2013-03-18 07:09:00,
2013-03-18 03:24:00,14.0,-3.0,30.32,NW,311,0.0,6.0,48,0.00,,,0.00,0,weatherlink.com 1.10,2013-03-18 07:24:00,
2013-03-18 03:39:00,14.0,-3.0,30.32,NW,310,0.0,5.0,48,0.00,,,0.00,0,weatherlink.com 1.10,2013-03-18 07:39:00,
2013-03-18 03:54:00,13.6,-2.0,30.32,NW,310,0.0,2.0,49,0.00,,,0.00,0,weatherlink.com 1.10,2013-03-18 07:54:00,
2013-03-18 04:09:00,13.3,-2.0,30.32,NW,309,1.0,3.0,50,0.00,,,0.00,0,weatherlink.com 1.10,2013-03-18 08:09:00,
2013-03-18 04:24:00,12.9,-2.0,30.32,NW,306,1.0,6.0,51,0.00,,,0.00,0,weatherlink.com 1.10,2013-03-18 08:24:00,
2013-03-18 04:39:00,12.6,-3.0,30.32,NW,306,2.0,2.0,51,0.00,,,0.00,0,weatherlink.com 1.10,2013-03-18 08:39:00,
2013-03-18 04:54:00,12.3,-2.0,30.32,WNW,303,0.0,6.0,53,0.00,,,0.00,0,weatherlink.com 1.10,2013-03-18 08:54:00,
2013-03-18 05:10:00,11.9,-3.0,30.33,WNW,285,7.0,8.0,52,0.00,,,0.00,0,weatherlink.com 1.10,2013-03-18 09:10:00,
2013-03-18 05:25:00,12.4,-3.0,30.33,WNW,283,0.0,7.0,51,0.00,,,0.00,0,weatherlink.com 1.10,2013-03-18 09:25:00,
2013-03-18 05:40:00,12.6,-3.0,30.33,WNW,285,5.0,6.0,50,0.00,,,0.00,0,weatherlink.com 1.10,2013-03-18 09:40:00,
2013-03-18 05:55:00,12.6,-3.0,30.34,WNW,286,7.0,7.0,51,0.00,,,0.00,0,weatherlink.com 1.10,2013-03-18 09:55:00,
2013-03-18 06:10:00,12.6,-3.0,30.35,WNW,292,5.0,8.0,50,0.00,,,0.00,0,weatherlink.com 1.10,2013-03-18 10:10:00,
2013-03-18 06:25:00,12.8,-3.0,30.35,WNW,298,0.0,5.0,50,0.00,,,0.00,0,weatherlink.com 1.10,2013-03-18 10:25:00,
2013-03-18 06:40:00,12.6,-3.0,30.36,WNW,298,2.0,6.0,50,0.00,,,0.00,0,weatherlink.com 1.10,2013-03-18 10:40:00,
2013-03-18 06:55:00,12.4,-2.0,30.36,WNW,298,0.0,2.0,52,0.00,,,0.00,5,weatherlink.com 1.10,2013-03-18 10:55:00,
2013-03-18 07:10:00,11.9,-3.0,30.37,WNW,298,3.0,5.0,52,0.00,,,0.00,12,weatherlink.com 1.10,2013-03-18 11:10:00,
2013-03-18 07:25:00,11.7,-3.0,30.37,WNW,298,0.0,5.0,52,0.00,,,0.00,19,weatherlink.com 1.10,2013-03-18 11:25:00,
2013-03-18 07:40:00,11.7,-3.0,30.38,WNW,298,2.0,5.0,52,0.00,,,0.00,25,weatherlink.com 1.10,2013-03-18 11:40:00,
2013-03-18 07:55:00,11.9,-3.0,30.39,WNW,298,1.0,5.0,52,0.00,,,0.00,37,weatherlink.com 1.10,2013-03-18 11:55:00,
2013-03-18 08:10:00,12.6,-3.0,30.39,WNW,297,0.0,6.0,51,0.00,,,0.00,40,weatherlink.com 1.10,2013-03-18 12:10:00,
2013-03-18 08:26:00,13.6,-2.0,30.39,WNW,297,0.0,5.0,49,0.00,,,0.00,47,weatherlink.com 1.10,2013-03-18 12:26:00,
2013-03-18 08:41:00,15.2,-2.0,30.38,WNW,297,2.0,5.0,47,0.00,,,0.00,197,weatherlink.com 1.10,2013-03-18 12:41:00,
2013-03-18 08:56:00,17.8,-1.0,30.39,NW,304,1.0,7.0,43,0.00,,,0.00,179,weatherlink.com 1.10,2013-03-18 12:56:00,
2013-03-18 09:11:00,19.2,-2.0,30.39,NW,304,1.0,5.0,39,0.00,,,0.00,97,weatherlink.com 1.10,2013-03-18 13:11:00,
2013-03-18 09:26:00,20.3,-2.0,30.39,NNW,329,4.0,7.0,37,0.00,,,0.00,285,weatherlink.com 1.10,2013-03-18 13:26:00,
2013-03-18 09:56:00,22.9,-4.0,30.39,NNW,340,7.0,8.0,30,0.00,,,0.00,399,weatherlink.com 1.10,2013-03-18 13:56:00,
2013-03-18 10:11:00,23.8,-4.0,30.38,NNW,332,1.0,6.0,30,0.00,,,0.00,504,weatherlink.com 1.10,2013-03-18 14:11:00,
2013-03-18 10:26:00,24.5,-3.0,30.38,NNW,331,0.0,6.0,30,0.00,,,0.00,559,weatherlink.com 1.10,2013-03-18 14:26:00,
2013-03-18 10:41:00,25.6,-2.0,30.38,NW,316,0.0,7.0,30,0.00,,,0.00,659,weatherlink.com 1.10,2013-03-18 14:41:00,
2013-03-18 10:56:00,27.2,-3.0,30.38,NW,326,6.0,8.0,27,0.00,,,0.00,605,weatherlink.com 1.10,2013-03-18 14:56:00,
2013-03-18 11:11:00,27.2,-3.0,30.37,WNW,285,5.0,6.0,27,0.00,,,0.00,687,weatherlink.com 1.10,2013-03-18 15:11:00,
2013-03-18 11:26:00,27.5,-3.0,30.37,West,277,0.0,7.0,26,0.00,,,0.00,668,weatherlink.com 1.10,2013-03-18 15:26:00,
2013-03-18 11:41:00,28.5,-3.0,30.36,West,266,1.0,7.0,26,0.00,,,0.00,671,weatherlink.com 1.10,2013-03-18 15:41:00,
2013-03-18 11:57:00,29.0,-4.0,30.36,NNW,334,0.0,7.0,24,0.00,,,0.00,613,weatherlink.com 1.10,2013-03-18 15:57:00,
2013-03-18 12:12:00,30.0,-2.0,30.36,NNW,348,4.0,7.0,25,0.00,,,0.00,687,weatherlink.com 1.10,2013-03-18 16:12:00,
2013-03-18 12:27:00,30.6,-2.0,30.35,NNW,346,0.0,5.0,24,0.00,,,0.00,668,weatherlink.com 1.10,2013-03-18 16:27:00,
2013-03-18 12:42:00,30.9,-3.0,30.34,NW,317,0.0,7.0,23,0.00,,,0.00,629,weatherlink.com 1.10,2013-03-18 16:42:00,
2013-03-18 13:12:00,32.7,-2.0,30.34,NW,323,0.0,7.0,22,0.00,,,0.00,708,weatherlink.com 1.10,2013-03-18 17:12:00,
2013-03-18 13:27:00,33.5,-2.0,30.33,NW,322,5.0,5.0,22,0.00,,,0.00,659,weatherlink.com 1.10,2013-03-18 17:27:00,
2013-03-18 13:42:00,33.7,-1.0,30.32,NW,322,4.0,7.0,23,0.00,,,0.00,733,weatherlink.com 1.10,2013-03-18 17:42:00,
2013-03-18 13:57:00,34.1,-1.0,30.31,West,280,5.0,8.0,22,0.00,,,0.00,629,weatherlink.com 1.10,2013-03-18 17:57:00,
2013-03-18 14:27:00,35.5,-2.0,30.29,NW,318,1.0,7.0,20,0.00,,,0.00,559,weatherlink.com 1.10,2013-03-18 18:27:00,
2013-03-18 14:42:00,36.0,-2.0,30.28,South,178,5.0,7.0,20,0.00,,,0.00,478,weatherlink.com 1.10,2013-03-18 18:42:00,
2013-03-18 14:57:00,36.5,-4.0,30.28,SE,142,0.0,9.0,18,0.00,,,0.00,482,weatherlink.com 1.10,2013-03-18 18:57:00,
2013-03-18 15:13:00,36.6,-2.0,30.27,SE,131,4.0,7.0,19,0.00,,,0.00,394,weatherlink.com 1.10,2013-03-18 19:13:00,
2013-03-18 15:28:00,36.8,-1.0,30.27,East,89,1.0,8.0,20,0.00,,,0.00,353,weatherlink.com 1.10,2013-03-18 19:28:00,
2013-03-18 15:43:00,36.9,1.0,30.26,ENE,74,5.0,9.0,22,0.00,,,0.00,309,weatherlink.com 1.10,2013-03-18 19:43:00,
2013-03-18 15:58:00,36.5,-2.0,30.26,South,171,8.0,8.0,19,0.00,,,0.00,283,weatherlink.com 1.10,2013-03-18 19:58:00,
2013-03-18 16:13:00,36.5,0.0,30.26,ESE,119,4.0,8.0,21,0.00,,,0.00,260,weatherlink.com 1.10,2013-03-18 20:13:00,
2013-03-18 16:28:00,36.5,-2.0,30.25,SSE,161,5.0,10.0,19,0.00,,,0.00,218,weatherlink.com 1.10,2013-03-18 20:28:00,
2013-03-18 16:43:00,36.2,-1.0,30.24,SSE,163,5.0,7.0,20,0.00,,,0.00,165,weatherlink.com 1.10,2013-03-18 20:43:00,
2013-03-18 16:58:00,35.8,0.0,30.23,SE,128,4.0,8.0,22,0.00,,,0.00,128,weatherlink.com 1.10,2013-03-18 20:58:00,
2013-03-18 17:13:00,35.3,-2.0,30.22,ESE,121,5.0,9.0,20,0.00,,,0.00,95,weatherlink.com 1.10,2013-03-18 21:13:00,
2013-03-18 17:28:00,34.9,1.0,30.22,ESE,122,7.0,8.0,24,0.00,,,0.00,72,weatherlink.com 1.10,2013-03-18 21:28:00,
2013-03-18 17:43:00,34.4,1.0,30.22,SE,139,9.0,9.0,24,0.00,,,0.00,51,weatherlink.com 1.10,2013-03-18 21:43:00,
2013-03-18 17:58:00,34.0,2.0,30.22,SE,136,5.0,9.0,25,0.00,,,0.00,40,weatherlink.com 1.10,2013-03-18 21:58:00,
2013-03-18 18:13:00,33.5,0.0,30.22,SE,139,3.0,8.0,24,0.00,,,0.00,26,weatherlink.com 1.10,2013-03-18 22:13:00,
2013-03-18 18:28:00,33.2,-1.0,30.22,SE,138,4.0,7.0,23,0.00,,,0.00,12,weatherlink.com 1.10,2013-03-18 22:28:00,
2013-03-18 18:44:00,32.8,-1.0,30.22,SE,140,5.0,7.0,24,0.00,,,0.00,5,weatherlink.com 1.10,2013-03-18 22:44:00,
2013-03-18 18:59:00,32.5,-1.0,30.22,SE,140,3.0,8.0,24,0.00,,,0.00,0,weatherlink.com 1.10,2013-03-18 22:59:00,
2013-03-18 19:14:00,32.2,0.0,30.22,SE,140,2.0,6.0,25,0.00,,,0.00,0,weatherlink.com 1.10,2013-03-18 23:14:00,
2013-03-18 19:29:00,31.9,0.0,30.21,SE,140,4.0,7.0,25,0.00,,,0.00,0,weatherlink.com 1.10,2013-03-18 23:29:00,
2013-03-18 19:44:00,31.8,0.0,30.20,SE,139,6.0,7.0,25,0.00,,,0.00,0,weatherlink.com 1.10,2013-03-18 23:44:00,
2013-03-18 19:59:00,31.6,1.0,30.20,SE,139,4.0,7.0,27,0.00,,,0.00,0,weatherlink.com 1.10,2013-03-18 23:59:00,
2013-03-18 20:14:00,31.5,1.0,30.20,SE,134,5.0,9.0,27,0.00,,,0.00,0,weatherlink.com 1.10,2013-03-19 00:14:00,
2013-03-18 20:29:00,31.3,4.0,30.20,SE,132,5.0,11.0,32,0.00,,,0.00,0,weatherlink.com 1.10,2013-03-19 00:29:00,
2013-03-18 20:44:00,31.2,10.0,30.19,SE,144,5.0,11.0,41,0.00,,,0.00,0,weatherlink.com 1.10,2013-03-19 00:44:00,
2013-03-18 20:59:00,30.9,12.0,30.19,SE,128,7.0,10.0,46,0.00,,,0.00,0,weatherlink.com 1.10,2013-03-19 00:59:00,
2013-03-18 21:14:00,30.6,15.0,30.19,SE,130,8.0,14.0,53,0.00,,,0.00,0,weatherlink.com 1.10,2013-03-19 01:14:00,
2013-03-18 21:29:00,30.1,17.0,30.19,ESE,117,8.0,13.0,58,0.00,,,0.00,0,weatherlink.com 1.10,2013-03-19 01:29:00,
2013-03-18 21:44:00,29.8,17.0,30.19,ESE,120,10.0,15.0,60,0.00,,,0.00,0,weatherlink.com 1.10,2013-03-19 01:44:00,
2013-03-18 21:59:00,29.5,18.0,30.19,SE,140,4.0,11.0,62,0.00,,,0.00,0,weatherlink.com 1.10,2013-03-19 01:59:00,
2013-03-18 22:15:00,29.4,18.0,30.20,SE,133,5.0,9.0,63,0.00,,,0.00,0,weatherlink.com 1.10,2013-03-19 02:15:00,
2013-03-18 22:30:00,29.3,19.0,30.20,SE,132,2.0,10.0,65,0.00,,,0.00,0,weatherlink.com 1.10,2013-03-19 02:30:00,
2013-03-18 22:45:00,29.3,19.0,30.20,SE,128,8.0,11.0,65,0.00,,,0.00,0,weatherlink.com 1.10,2013-03-19 02:45:00,
2013-03-18 23:00:00,29.1,19.0,30.19,SE,138,6.0,9.0,66,0.00,,,0.00,0,weatherlink.com 1.10,2013-03-19 03:00:00,
2013-03-18 23:15:00,29.1,19.0,30.19,ESE,102,6.0,10.0,67,0.00,,,0.00,0,weatherlink.com 1.10,2013-03-19 03:15:00,
2013-03-18 23:30:00,28.8,21.0,30.19,SE,144,5.0,10.0,73,0.00,,,0.00,0,weatherlink.com 1.10,2013-03-19 03:30:00,
2013-03-18 23:45:00,28.2,22.0,30.19,SE,136,6.0,9.0,79,0.00,,,0.00,0,weatherlink.com 1.10,2013-03-19 03:45:00,